This demonstration page uses our WeatherBlox Daily Observations layout. Learn more.

Left ArrowRight Arrow

34.74481, -87.66753

Hourly Observations for May 20, 2022

Temp ( °F °C ) Dew Point ( °F °C ) Humidity (%) Winds ( mph kmh ) Pressure ( in mb ) Visibility ( mi km ) Precip ( " mm )
12:53 am 00:53 Clear 77 25 66 18.9 69 69 SSW 9 15 29.74 1007 10 16 0.00 0.00
1:53 am 01:53 Clear 76 24.4 66 18.9 72 72 SSW 10 17 29.74 1007 10 16 0.00 0.00
2:53 am 02:53 Clear 75 23.9 66 18.9 74 74 SSW 9 15 29.75 1008 10 16 0.00 0.00
3:53 am 03:53 Clear 74 23.3 66 18.9 76 76 S 9 15 29.76 1008 10 16 0.00 0.00
4:53 am 04:53 Clear 73 22.8 67 19.4 81 81 S 8 13 29.78 1008 10 16 0.00 0.00
5:32 am 05:32 Mostly Cloudy 73 22.8 67 19.4 81 81 S 6 9 29.80 1009 10 16 0.00 0.00
5:53 am 05:53 Mostly Cloudy 73 22.8 68 20 84 84 SSE 5 7 29.80 1009 10 16 0.00 0.00
6:49 am 06:49 Partly Cloudy 73 23 68 20 83 83 SSW 7 11 29.83 1010 10 16 0.00 0.00
6:53 am 06:53 Partly Cloudy 75 23.9 68 20 79 79 SSW 13 20 29.83 1010 10 16 0.00 0.00
7:12 am 07:12 Mostly Cloudy 76 24.4 68 20 77 77 SW 8 13 29.84 1010 10 16 0.00 0.00
7:53 am 07:53 Mostly Cloudy 77 25 68 20 74 74 SSW 10 17 29.85 1011 10 16 0.00 0.00
8:40 am 08:40 Partly Cloudy 79 26.1 67 19.4 67 67 SSW 15 24 29.86 1011 10 16 0.00 0.00
8:53 am 08:53 Partly Cloudy 79 26.1 67 19.4 67 67 SW 17 28 29.86 1011 10 16 0.00 0.00
9:53 am 09:53 Partly Cloudy 80 26.7 67 19.4 64 64 SSW 16 26 29.86 1011 10 16 0.00 0.00
10:53 am 10:53 Sunny 84 28.9 67 19.4 57 57 SSW 15 24 29.86 1011 10 16 0.00 0.00
11:53 am 11:53 Partly Cloudy 86 30 66 18.9 51 51 SW 17 28 29.85 1011 10 16 0.00 0.00
12:53 pm 12:53 Partly Cloudy 88 31.1 65 18.3 46 46 SW 18 30 29.84 1011 10 16 0.00 0.00
1:53 pm 13:53 Mostly Sunny 90 32.2 63 17.2 41 41 SSW 21 33 29.84 1010 10 16 0.00 0.00
2:53 pm 14:53 Partly Cloudy 89 31.7 63 17.2 42 42 S 16 26 29.83 1010 10 16 0.00 0.00
3:53 pm 15:53 Mostly Sunny 88 31.1 63 17.2 43 43 S 14 22 29.83 1010 10 16 0.00 0.00
4:53 pm 16:53 Sunny 89 31.7 63 17.2 42 42 S 14 22 29.83 1010 10 16 0.00 0.00
5:53 pm 17:53 Mostly Sunny 88 31.1 65 18.3 46 46 S 15 24 29.83 1010 10 16 0.00 0.00
6:53 pm 18:53 Sunny 86 30 65 18.3 49 49 S 10 17 29.83 1010 10 16 0.00 0.00
7:53 pm 19:53 Clear 82 27.8 65 18.3 56 56 S 5 7 29.83 1010 10 16 0.00 0.00
8:53 pm 20:53 Clear 78 25.6 67 19.4 69 69 SE 3 6 29.86 1011 10 16 0.00 0.00
9:53 pm 21:53 Clear 76 24.4 67 19.4 74 74 SSE 6 9 29.88 1012 10 16 0.00 0.00
10:53 pm 22:53 Clear 75 23.9 67 19.4 76 76 SE 6 9 29.90 1013 10 16 0.00 0.00
11:53 pm 23:53 Mostly Clear 77 25 67 19.4 71 71 SSE 12 19 29.91 1013 10 16 0.00 0.00

Powered by AerisWeather